Location: Unspecified
(0.0000°N, 0.0000°E)
Time: 12:44:38
(UTC+00:00)

NUDT-PHONESAT - Pass Details

Date: 13 December 2017
Orbit: 494 x 511 km, 97.4° (Epoch: 23 April)

Event Time Altitude Azimuth Distance (km) Brightness Sun altitude
Rises 05:01:09 0° 49° (NE) 2,613 ? -12.2°
Reaches altitude 10° 05:05:08 10° 93° (E) 1,727 ? -11.3°
Maximum altitude 05:05:42 10° 101° (ESE) 1,710 ? -11.1°
Drops below altitude 10° 05:06:15 10° 110° (ESE) 1,727 ? -11.0°
Sets 05:10:13 0° 153° (SSE) 2,611 ? -10.1°
